Milan, NH

3:44 PM EDT on August 27, 2016 (GMT -0400)
Berlin Municipal

Weather History for KBML - February, 2013

Change the Weather History Date:

Friday, February 15, 2013

  Actual Average Record
Temperature  
Mean Temperature 30 °F -  
Max Temperature 43 °F 27 °F 50 °F (2006)
Min Temperature 18 °F 1 °F -29 °F (2003)
Degree Days  
Heating Degree Days 34    
Moisture  
Dew Point 20 °F    
Average Humidity 74    
Maximum Humidity 89    
Minimum Humidity 42    
Precipitation  
Precipitation 0.00 in - - ()
Sea Level Pressure  
Sea Level Pressure 29.90 in    
Wind  
Wind Speed 1 mph (West)    
Max Wind Speed 13 mph    
Max Gust Speed 23 mph    
Visibility 8 miles    
Events Snow    
Averages and records for this station are not official NWS values.
T = Trace of Precipitation, MM = Missing Value Source: NWS Daily Summary

Daily Weather History Graph

Daily Weather History Graph

Search for Another Location

Airport or City:

Trip Planner

Search our weather history database for the weather conditions in past years. The results will help you decide how hot, cold, wet, or windy it might be!

Date:

Astronomy

Feb. 15, 2013 Rise Set
Actual Time 6:44 AM EST 5:13 PM EST
Civil Twilight 6:14 AM EST 5:43 PM EST
Nautical Twilight 5:40 AM EST 6:17 PM EST
Astronomical Twilight 5:06 AM EST 6:51 PM EST
Moon 9:03 AM EST (2/15) 11:28 PM EST (2/15)
Length of Visible Light 11h 29m
Length of Day
10h 29m
Waxing Crescent, 30% of the Moon is Illuminated
Feb 15
Waxing Crescent
Feb 17
First Quarter
Feb 25
Full
Mar 4
Last Quarter
Mar 11
New

Hourly Weather History & Observations

Time (EST) Temp. Windchill Dew Point Humidity Pressure Visibility Wind Dir Wind Speed Gust Speed Precip Events Conditions
12:52 AM 19.0 °F - 16.0 °F 88% 29.96 in 10.0 mi Calm Calm - N/A   Overcast
1:52 AM 19.0 °F - 16.0 °F 88% 29.96 in 9.0 mi Calm Calm - N/A   Overcast
2:52 AM 18.0 °F - 14.0 °F 84% 29.94 in 10.0 mi Calm Calm - N/A   Overcast
3:52 AM 18.0 °F - 15.1 °F 88% 29.94 in 7.0 mi Calm Calm - N/A   Overcast
4:52 AM 18.0 °F - 15.1 °F 88% 29.92 in 8.0 mi Calm Calm - N/A   Overcast
5:52 AM 19.9 °F - 17.1 °F 89% 29.91 in 9.0 mi Calm Calm - N/A   Overcast
6:52 AM 21.0 °F - 17.1 °F 85% 29.91 in 6.0 mi Calm Calm - 0.00 in Snow Light Snow
7:28 AM 21.2 °F - 17.6 °F 86% 29.86 in 10.0 mi Calm Calm - 0.00 in   Overcast
7:52 AM 23.0 °F - 18.0 °F 81% 29.92 in 10.0 mi Calm Calm - 0.00 in   Overcast
8:10 AM 23.0 °F - 19.4 °F 86% 29.85 in 10.0 mi Calm Calm - N/A   Overcast
8:34 AM 24.8 °F - 19.4 °F 80% 29.86 in 1.8 mi Calm Calm - 0.00 in Snow Light Snow
8:37 AM 24.8 °F - 19.4 °F 80% 29.86 in 0.8 mi Calm Calm - 0.00 in Snow Light Snow
8:52 AM 24.1 °F - 19.9 °F 84% 29.91 in 0.8 mi Calm Calm - 0.00 in Snow Light Snow
8:57 AM 24.8 °F - 21.2 °F 86% 29.85 in 1.8 mi Calm Calm - 0.00 in Snow Light Snow
9:00 AM 24.8 °F - 21.2 °F 86% 29.85 in 3.0 mi Calm Calm - 0.00 in Snow Light Snow
9:07 AM 26.6 °F - 21.2 °F 80% 29.85 in 8.0 mi Calm Calm - 0.00 in   Mostly Cloudy
9:52 AM 30.9 °F 26.2 °F 23.0 °F 72% 29.90 in 10.0 mi North 4.6 mph - 0.00 in   Mostly Cloudy
10:52 AM 35.1 °F 32.2 °F 24.1 °F 64% 29.89 in 10.0 mi NNW 3.5 mph - N/A   Overcast
11:52 AM 43.0 °F 39.5 °F 27.0 °F 53% 29.86 in 10.0 mi Variable 5.8 mph - N/A   Overcast
12:52 PM 43.0 °F 36.4 °F 25.0 °F 49% 29.85 in 10.0 mi WSW 12.7 mph 23.0 mph N/A   Overcast
1:52 PM 43.0 °F 38.8 °F 23.0 °F 45% 29.85 in 10.0 mi Variable 6.9 mph 20.7 mph N/A   Overcast
2:52 PM 43.0 °F 38.2 °F 23.0 °F 45% 29.86 in 10.0 mi WSW 8.1 mph 18.4 mph N/A   Overcast
3:52 PM 43.0 °F 40.3 °F 21.0 °F 42% 29.87 in 10.0 mi Variable 4.6 mph - N/A   Partly Cloudy
4:52 PM 41.0 °F 37.1 °F 21.9 °F 47% 29.89 in 10.0 mi Variable 5.8 mph - N/A   Overcast
5:52 PM 37.9 °F - 24.1 °F 57% 29.91 in 10.0 mi Calm Calm - N/A   Overcast
6:52 PM 36.0 °F 32.1 °F 23.0 °F 59% 29.92 in 10.0 mi West 4.6 mph - N/A   Partly Cloudy
8:52 PM 25.0 °F - 19.9 °F 81% 29.94 in 10.0 mi Calm Calm - N/A   Clear
9:52 PM 24.1 °F - 19.0 °F 81% 29.94 in 10.0 mi Calm Calm - N/A   Clear
10:52 PM 21.9 °F 17.2 °F 18.0 °F 85% 29.93 in 9.0 mi South 3.5 mph - N/A   Clear
11:52 PM 19.9 °F - 16.0 °F 85% 29.93 in 10.0 mi Calm Calm - N/A   Clear